« Back
NWS Peachtree City, Ga » Text Product » GA Regional Weather Roundup


Printer-friendly Version
Current Version              Previous Versions:   1  2  3  4  5  6  7  8  9  

Regional Weather Roundup

896
ASUS42 KFFC 020803
RWRGA
WEATHER ROUNDUP FOR GEORGIA
NATIONAL WEATHER SERVICE PEACHTREE CITY GA
400 AM EDT THU OCT 02 2014

NOTE: "FAIR" INDICATES FEW OR NO CLOUDS BELOW 12,000 FEET WITH NO
SIGNIFICANT WEATHER AND/OR OBSTRUCTIONS TO VISIBILITY.

* = USE WITH CAUTION. THE STATIONS MARKED WITH AN ASTERISK MAY NOT
REPORT WEATHER SUCH AS PRECIPITATION, FOG, OR THUNDER AND ARE NOT
QUALITY CONTROLLED BY NWS.

THE REMARK "TC" DENOTES TEMPERATURE READING IN DEGREES CELSIUS.

GAZ001>058-020900-
NORTH GEORGIA

CITY           SKY/WX    TMP DP  RH WIND       PRES   REMARKS
ATLANTA        CLEAR     67  62  84 CALM      30.05R
ATHENS         CLEAR     60  58  92 CALM      30.05S
CHAMBLEE       CLEAR     61  58  90 CALM      30.05S
PEACHTREE CITY CLEAR     60  59  96 CALM      30.05F
ROME           CLEAR     59  57  93 CALM      30.02F
WEST ATLANTA   CLEAR     61  58  90 CALM      30.04S
GAINESVILLE    CLEAR     64  61  90 CALM      30.08S
CARTERSVILLE   CLEAR     58  57  97 CALM      30.04S


CITY           SKY/WX    TMP DP  RH WIND       PRES   REMARKS
DALTON*        CLEAR     57  57 100 CALM      30.04R
MARIETTA       CLEAR     62  61  96 N2        30.05S
$$

GAZ059>098-102>109-020900-
CENTRAL GEORGIA

CITY           SKY/WX    TMP DP  RH WIND       PRES   REMARKS
AUGUSTA-BUSH   FOG       58  58 100 CALM      30.04S VSB 1/4
AUGUSTA-DANIEL CLEAR     67  63  87 CALM      30.05S
COLUMBUS       CLEAR     66  64  93 CALM      30.02S
MACON          PTCLDY    62  62 100 CALM      30.03S
ROBINS AFB     CLEAR     65  65  98 SE6       30.04R


CITY           SKY/WX    TMP DP  RH WIND       PRES   REMARKS
LAGRANGE*      CLEAR     64  63  97 CALM      30.04R
SYLVANIA*      CLEAR     65  64  99 CALM      30.05S
MILLEDGEVILLE* CLEAR     64  64 100 CALM      30.04S FOG
$$

GAZ099>101-110>166-020900-
SOUTH GEORGIA

CITY           SKY/WX    TMP DP  RH WIND       PRES   REMARKS
SAVANNAH       PTCLDY    65  62  90 CALM      30.04S
VALDOSTA       PTCLDY    67  65  93 CALM      30.01F FOG
ALMA           CLOUDY    66  65  96 CALM      30.03S FOG
ST SIMONS      CLOUDY    71  69  93 N3        30.01S
FT STEWART     PTCLDY    62  60  94 CALM      30.02S
ALBANY         CLEAR     67  65  93 CALM      30.04S
HUNTER AFB     PTCLDY    65  65 100 W2        30.02S
MOODY AFB      PTCLDY    69  67  94 NE2       30.01F
BRUNSWICK      CLOUDY    70  68  94 CALM      30.03S


CITY           SKY/WX    TMP DP  RH WIND       PRES   REMARKS
BAINBRIDGE*    MOCLDY    68  68 100 CALM      30.02S
MOULTRIE*      CLEAR     68  68 100 CALM      30.03S
VIDALIA*       CLEAR     64  64 100 CALM      30.04S
WAYCROSS*      MOCLDY    69  69 100 N3        30.02S FOG
DOUGLAS*       MOCLDY    68  66  94 CALM      30.04F
$$



USA.gov is the U.S. government's official web portal to all federal, state and local government web resources and services.